This is the latest recevied weather packets stored in our database for station/object VA3XLT-1. If no packets are shown the sender has not sent any weather packets the latest 10 day(s).
| Time | Temp. | Humidity | Pressure | Rain* | Wind** | Luminosity | Snow |
|---|---|---|---|---|---|---|---|
| 1777588371 | 12.22° C | 62% | 1013.6 hPa | 0 mm | - | - | - |
| 1777588071 | 12.22° C | 64% | 1013.6 hPa | 0 mm | - | - | - |
| 1777587771 | 12.22° C | 62% | 1013.6 hPa | 0 mm | - | - | - |
| 1777587471 | 12.22° C | 60% | 1013.6 hPa | 0 mm | - | - | - |
| 1777587171 | 12.78° C | 60% | 1013.5 hPa | 0 mm | - | - | - |
| 1777586871 | 12.78° C | 60% | 1013.5 hPa | 0 mm | - | - | - |
| 1777586571 | 12.22° C | 58% | 1013.5 hPa | 0 mm | - | - | - |
| 1777586271 | 12.22° C | 60% | 1013.5 hPa | 0 mm | - | - | - |
| 1777585971 | 12.78° C | 61% | 1013.4 hPa | 0 mm | - | - | - |
| 1777585671 | 12.78° C | 62% | 1013.4 hPa | 0 mm | - | - | - |
| 1777585371 | 12.78° C | 59% | 1013.3 hPa | 0 mm | - | - | - |
| 1777585071 | 12.78° C | 61% | 1013.3 hPa | 0 mm | - | - | - |
| 1777584771 | 12.78° C | 61% | 1013.4 hPa | 0 mm | - | - | - |
| 1777584471 | 13.33° C | 59% | 1013.3 hPa | 0 mm | - | - | - |
| 1777584171 | 13.33° C | 60% | 1013.4 hPa | 0 mm | - | - | - |
| 1777583871 | 13.33° C | 60% | 1013.3 hPa | 0 mm | - | - | - |
| 1777583571 | 12.78° C | 60% | 1013.3 hPa | 0 mm | - | - | - |
| 1777583271 | 12.78° C | 60% | 1013.4 hPa | 0 mm | - | - | - |
| 1777582971 | 12.78° C | 61% | 1013.3 hPa | 0 mm | - | - | - |
| 1777582671 | 12.78° C | 64% | 1013.3 hPa | 0 mm | - | - | - |
| 1777582371 | 12.78° C | 63% | 1013.2 hPa | 0 mm | - | - | - |
| 1777582071 | 12.22° C | 62% | 1013.2 hPa | 0 mm | - | - | - |
| 1777581771 | 13.33° C | 62% | 1013.3 hPa | 0 mm | - | - | - |
| 1777581471 | 12.78° C | 64% | 1013.2 hPa | 0 mm | - | - | - |
| 1777581171 | 13.33° C | 65% | 1013.3 hPa | 0 mm | - | - | - |
* Rain latest hour (hover to see other rain measurements)
** Current wind speed in m/s (hover to see current wind gust speed)